Weather History for Springfield, MO

Change the Weather History Date:

Wednesday, March 6, 2013

  Actual Average Record
Temperature  
Mean Temperature 35 °F 43 °F  
Max Temperature 45 °F 54 °F 83 °F (1956)
Min Temperature 25 °F 32 °F 0 °F (1943)
Degree Days  
Heating Degree Days 30 22  
Month to date heating degree days 178 135  
Since 1 July heating degree days 3476 3728  
Cooling Degree Days 0 0  
Month to date cooling degree days 0 0  
Year to date cooling degree days 0 0  
Moisture  
Dew Point 20 °F    
Average Humidity 54    
Maximum Humidity 68    
Minimum Humidity 40    
Precipitation  
Precipitation 0.00 in 0.11 in 1.39 in (1973)
Month to date precipitation 0.03 0.63  
Year to date precipitation 5.37 5.62  
Snow  
Snow 0.00 in - - ()
Month to date snowfall T  
Since 1 July snowfall 7.0  
Snow Depth 0.00 in    
Sea Level Pressure  
Sea Level Pressure 30.34 in    
Wind  
Wind Speed 10 mph (North)    
Max Wind Speed 25 mph    
Max Gust Speed 30 mph    
Visibility 10 miles    
Events      
T = Trace of Precipitation, MM = Missing Value Source: NWS Daily Summary

Daily Weather History Graph

Daily Weather History Graph

Search for Another Location

Airport:

Trip Planner

Search our weather history database for the weather conditions in past years. The results will help you decide how hot, cold, wet, or windy it might be!

Date:

Astronomy

Mar. 06, 2013 Rise Set
Actual Time 6:37 AM CST 6:12 PM CST
Civil Twilight 6:11 AM CST 6:38 PM CST
Nautical Twilight 5:41 AM CST 7:08 PM CST
Astronomical Twilight 5:10 AM CST 7:39 PM CST
Moon 2:41 AM CST (3/6) 1:00 PM CST (3/6)
Length of Visible Light 12h 27m
Length of Day
11h 35m
Waning Crescent, 29% of the Moon is Illuminated
Mar 6
Waning Crescent
Mar 11
New
Mar 19
First Quarter
Mar 27
Full
Apr 2
Last Quarter

Hourly Weather History & Observations

Time (CST) Temp. Windchill Dew Point Humidity Pressure Visibility Wind Dir Wind Speed Gust Speed Precip Events Conditions
12:52 AM 30.0 °F 18.7 °F 19.9 °F 66% 30.30 in 10.0 mi NNW 16.1 mph 20.7 mph N/A   Overcast
1:01 AM 30.0 °F 18.7 °F 19.9 °F 66% 30.26 in 10.0 mi NNW 16.1 mph - N/A   Overcast
1:52 AM 28.0 °F 13.0 °F 17.1 °F 63% 30.32 in 10.0 mi NNW 26.5 mph - N/A   Overcast
2:52 AM 28.0 °F 14.9 °F 18.0 °F 66% 30.31 in 10.0 mi NNW 19.6 mph 25.3 mph N/A   Overcast
3:52 AM 27.0 °F 13.5 °F 17.1 °F 66% 30.33 in 10.0 mi NNW 19.6 mph - N/A   Mostly Cloudy
4:52 AM 25.0 °F 11.7 °F 16.0 °F 69% 30.36 in 10.0 mi NNW 17.3 mph - N/A   Scattered Clouds
5:19 AM 25.0 °F 13.1 °F 17.1 °F 72% 30.33 in 10.0 mi NNW 13.8 mph - N/A   Mostly Cloudy
5:52 AM 26.1 °F 14.5 °F 17.1 °F 69% 30.38 in 10.0 mi NNW 13.8 mph - N/A   Overcast
6:52 AM 26.1 °F 13.6 °F 17.1 °F 69% 30.40 in 10.0 mi NNW 16.1 mph - N/A   Overcast
7:52 AM 27.0 °F 17.3 °F 17.1 °F 66% 30.41 in 10.0 mi North 10.4 mph - N/A   Overcast
8:23 AM 28.0 °F 17.5 °F 17.1 °F 63% 30.37 in 10.0 mi North 12.7 mph - N/A   Scattered Clouds
8:52 AM 30.0 °F 18.7 °F 17.1 °F 59% 30.41 in 10.0 mi NNE 16.1 mph - N/A   Clear
9:52 AM 32.0 °F 23.0 °F 18.0 °F 56% 30.41 in 10.0 mi NNE 11.5 mph 19.6 mph N/A   Clear
10:52 AM 34.0 °F 28.8 °F 19.0 °F 54% 30.40 in 10.0 mi North 5.8 mph - N/A   Clear
11:52 AM 36.0 °F - 19.0 °F 50% 30.40 in 10.0 mi North - - N/A   Clear
12:52 PM 39.0 °F - 19.9 °F 46% 30.38 in 10.0 mi North - - N/A   Clear
1:52 PM 41.0 °F 38.0 °F 21.0 °F 45% 30.36 in 10.0 mi NW 4.6 mph - N/A   Clear
2:52 PM 41.0 °F - 21.0 °F 45% 30.34 in 10.0 mi Calm Calm - N/A   Clear
3:52 PM 44.1 °F 42.5 °F 21.0 °F 40% 30.32 in 10.0 mi Variable 3.5 mph - N/A   Clear
4:52 PM 42.1 °F 39.2 °F 21.9 °F 45% 30.32 in 10.0 mi NW 4.6 mph - N/A   Clear
5:52 PM 39.0 °F 35.7 °F 23.0 °F 53% 30.31 in 10.0 mi NNW 4.6 mph - N/A   Clear
6:52 PM 37.9 °F 34.4 °F 21.9 °F 53% 30.31 in 10.0 mi NNE 4.6 mph - N/A   Clear
7:52 PM 37.0 °F 32.4 °F 21.9 °F 54% 30.30 in 10.0 mi ENE 5.8 mph - N/A   Clear
8:52 PM 34.0 °F 28.0 °F 23.0 °F 64% 30.31 in 10.0 mi East 6.9 mph - N/A   Clear
9:52 PM 35.1 °F 28.6 °F 23.0 °F 61% 30.30 in 10.0 mi NE 8.1 mph - N/A   Clear
10:52 PM 33.1 °F 26.9 °F 21.9 °F 64% 30.28 in 10.0 mi ENE 6.9 mph - N/A   Clear
11:52 PM 32.0 °F 25.6 °F 21.9 °F 66% 30.28 in 10.0 mi East 6.9 mph - N/A   Clear